DateTimeUTC,F1_A11,F1_S11,BsB_S11,BsG_S11,BsR_S11,BbsB_S11,BbsG_S11,BbsR_S11,BaB_A11,BaG_A11,BaR_A11,Tu_S11,T_S11,Uu_S11,U_S11,P_S11,T1_A11
2021-03-11T22:00:00Z,00000200,21000000,,,,,,,0000.10,-000.29,-000.18,17.3,24.9,,00.0,0638.0,30.9
2021-03-11T22:01:00Z,00000200,21000000,,,,,,,0000.05,0000.30,0000.01,17.3,24.9,,00.0,0638.0,30.9
2021-03-11T22:02:00Z,00000200,21000000,,,,,,,0000.24,0000.11,0000.55,17.2,24.9,,00.0,0638.0,30.9
2021-03-11T22:03:00Z,00000200,61000000,,,,,,,0000.00,0000.24,-000.09,17.2,24.9,,00.0,0638.0,30.9
2021-03-11T22:04:00Z,00000200,41000000,0000.80,0000.79,0000.55,0000.44,-000.10,0000.14,0000.36,-000.25,0000.14,17.2,24.6,,00.0,0638.9,30.9
2021-03-11T22:05:00Z,00000200,01000000,0001.36,0000.83,0000.22,0000.11,0000.24,-000.03,0000.54,0000.57,0000.07,17.2,24.6,,00.0,0639.0,30.9
2021-03-11T22:06:00Z,00000200,01000000,0001.78,0000.90,0000.42,0000.76,0000.05,0000.32,0000.09,0000.40,0000.38,17.2,24.5,,00.0,0639.0,30.9
2021-03-11T22:07:00Z,00000200,01000000,0001.25,0001.01,0000.20,0000.36,0000.07,0000.42,0000.90,0000.59,0000.48,17.1,24.5,,00.0,0639.0,30.9
2021-03-11T22:08:00Z,00000200,01000000,0001.04,0000.97,0000.12,0000.15,0000.03,0000.17,0000.38,0000.46,0000.36,17.1,24.4,,00.0,0639.0,30.9
2021-03-11T22:09:00Z,00000200,01000000,0001.58,0000.96,0000.51,0000.62,0000.22,0000.49,0000.28,0000.09,-000.13,17.1,24.4,,00.0,0639.0,30.9
2021-03-11T22:10:00Z,00000200,01000000,0001.75,0001.21,0000.37,-000.50,0000.18,-000.15,0000.22,0000.40,0000.47,17.0,24.4,,00.0,0639.0,30.9
2021-03-11T22:11:00Z,00000200,01000000,0001.41,0001.13,0000.62,0000.36,-000.02,0000.22,0000.45,-000.03,0000.46,17.0,24.4,,00.0,0639.0,30.9
2021-03-11T22:12:00Z,00000200,01000000,0001.68,0001.02,0000.67,0000.33,0000.22,0000.59,0000.46,0000.93,0000.21,17.0,24.3,,00.0,0639.0,30.9
2021-03-11T22:13:00Z,00000200,01000000,0001.56,0000.92,0000.37,-000.01,0000.10,0000.18,0000.62,0000.21,0000.32,16.9,24.3,,00.0,0638.9,30.9
2021-03-11T22:14:00Z,00000200,01000000,0001.31,0000.99,0000.58,0000.82,0000.09,0000.12,0000.51,0000.67,0000.32,17.0,24.3,,00.0,0638.9,30.9
2021-03-11T22:15:00Z,00000200,01000000,0001.49,0000.86,0000.36,0000.35,0000.24,0000.20,0000.36,0000.12,-000.10,17.1,24.3,,00.0,0638.9,30.9
2021-03-11T22:16:00Z,00000200,01000000,0001.80,0001.05,0000.42,0000.35,0000.11,0000.27,0000.41,0000.11,0000.42,17.1,24.3,,00.0,0638.9,30.9
2021-03-11T22:17:00Z,00000200,01000000,0000.98,0000.79,0000.48,-000.07,0000.26,0000.01,0000.34,0000.61,0000.22,17.1,24.3,,00.0,0638.9,30.9
2021-03-11T22:18:00Z,00000200,01000000,0000.95,0000.98,0000.38,-000.03,0000.23,0000.07,0000.35,0000.36,0000.39,17.1,24.3,,00.0,0638.9,30.9
2021-03-11T22:19:00Z,00000200,01000000,0001.37,0001.10,0000.30,0000.34,0000.11,0000.30,0000.77,0000.49,0000.13,17.1,24.3,,00.0,0638.9,30.9
2021-03-11T22:20:00Z,00000200,01000000,0001.64,0001.14,0000.34,0000.46,0000.33,0000.03,0000.61,0000.43,0000.79,17.0,24.3,,00.0,0638.9,30.9
2021-03-11T22:21:00Z,00000200,01000000,0002.03,0001.12,0000.42,0000.61,0000.27,0000.30,0000.66,0000.83,0000.06,17.0,24.2,,00.0,0638.9,30.9
2021-03-11T22:22:00Z,00000200,01000000,0001.58,0000.64,0000.29,0000.55,0000.04,0000.05,0000.44,0000.25,0000.31,16.9,24.2,,00.0,0638.9,30.9
2021-03-11T22:23:00Z,00000200,01000000,0001.05,0000.92,0000.19,0000.43,-000.04,0000.15,-000.19,0000.11,0000.30,16.9,24.2,,00.0,0638.9,30.9
2021-03-11T22:24:00Z,00000200,01000000,0001.90,0001.02,0000.25,0000.51,0000.22,0000.30,0000.67,0000.37,0000.10,16.9,24.2,,00.0,0638.9,30.9
2021-03-11T22:25:00Z,00000200,01000000,0000.86,0000.92,0000.34,0000.46,0000.26,0000.32,0000.60,0000.46,0000.32,16.8,24.1,,00.0,0638.9,30.9
2021-03-11T22:26:00Z,00000200,01000000,0000.99,0000.64,0000.32,0000.33,0000.03,-000.06,0000.41,0000.43,0000.58,16.8,24.1,,00.0,0638.9,30.9
2021-03-11T22:27:00Z,00000200,01000000,0000.63,0000.94,0000.55,0000.36,0000.02,0000.28,0001.00,0000.55,0000.26,16.7,24.1,,00.0,0638.9,30.9
2021-03-11T22:28:00Z,00000200,01000000,0001.50,0000.78,0000.46,0000.96,0000.38,-000.02,0000.04,0000.60,0000.42,16.7,24.1,,00.0,0638.8,30.9
2021-03-11T22:29:00Z,00000200,01000000,0000.49,0000.74,0000.38,0000.81,0000.03,-000.04,0000.42,0000.09,0000.48,16.8,24.1,,00.0,0638.8,30.9
2021-03-11T22:30:00Z,00000200,01000000,0001.05,0000.87,0000.41,0000.11,-000.17,0000.03,0000.25,0000.30,-000.13,16.9,24.1,,00.0,0638.8,30.9
2021-03-11T22:31:00Z,00000200,01000000,0001.04,0000.76,0000.45,0000.23,0000.18,0000.26,0000.41,0000.21,0000.31,17.0,24.1,,00.0,0638.8,30.9
2021-03-11T22:32:00Z,00000200,01000000,0001.37,0000.96,0000.37,0000.47,0000.20,0000.24,0000.70,0000.66,0000.67,17.0,24.2,,00.0,0638.8,30.9
2021-03-11T22:33:00Z,00000200,01000000,0001.71,0000.64,0000.41,0000.52,0000.12,0000.16,0000.45,0000.85,0000.44,17.1,24.2,,00.0,0638.8,30.9
2021-03-11T22:34:00Z,00000200,01000000,0001.05,0000.91,0000.27,0000.24,0000.23,0000.25,0000.05,-000.15,-000.25,17.2,24.2,,00.0,0638.8,30.9
2021-03-11T22:35:00Z,00000200,01000000,0001.68,0000.72,0000.37,0000.09,-000.03,0000.13,0000.49,0000.23,0000.37,17.2,24.2,,00.0,0638.8,30.9
2021-03-11T22:36:00Z,00000200,01000000,0001.40,0000.68,0000.26,0000.10,0000.30,0000.06,0000.06,0000.22,-000.32,17.1,24.2,,00.0,0638.8,30.9
2021-03-11T22:37:00Z,00000200,01000000,0001.52,0000.63,0000.32,-000.00,0000.29,0000.04,0000.27,-000.16,0000.44,17.1,24.2,,00.0,0638.8,30.9
2021-03-11T22:38:00Z,00000200,01000000,0001.32,0000.81,0000.51,0000.42,-000.05,0000.24,0000.15,0000.70,0000.28,17.0,24.2,,00.0,0638.8,30.9
2021-03-11T22:39:00Z,00000200,01000000,0001.38,0000.68,0000.29,0000.12,-000.03,0000.19,0000.95,0000.39,0000.35,17.0,24.2,,00.0,0638.8,30.9
2021-03-11T22:40:00Z,00000200,01000000,0000.78,0000.85,0000.29,0000.33,0000.31,0000.44,-000.04,0001.00,0000.38,16.9,24.1,,00.0,0638.8,30.9
2021-03-11T22:41:00Z,00000200,01000000,0001.58,0000.44,0000.48,0000.69,0000.14,0000.07,0000.92,-000.06,0000.12,16.9,24.1,,00.0,0638.8,30.9
2021-03-11T22:42:00Z,00000200,01000000,0000.97,0000.76,0000.19,0000.53,0000.25,0000.18,0000.60,0000.48,0000.28,16.9,24.1,,00.0,0638.8,30.9
2021-03-11T22:43:00Z,00000200,01000000,0001.42,0000.77,0000.43,0000.06,0000.06,-000.04,0000.20,0000.23,0000.49,16.8,24.1,,00.0,0638.8,30.9
2021-03-11T22:44:00Z,00000200,01000000,0001.14,0001.02,0000.26,0000.08,0000.04,0000.03,0000.35,0000.68,0000.26,16.9,24.0,,00.0,0638.8,30.9
2021-03-11T22:45:00Z,00000200,01000000,0000.75,0000.85,0000.47,0000.35,0000.05,0000.23,0000.10,-000.01,0000.20,17.0,24.1,,00.0,0638.8,30.9
2021-03-11T22:46:00Z,00000200,01000000,0000.58,0000.68,0000.17,0000.03,-000.00,0000.04,0000.17,0000.08,-000.22,17.1,24.1,,00.0,0638.7,30.9
2021-03-11T22:47:00Z,00000200,01000000,0001.05,0000.52,0000.32,0000.38,0000.21,-000.03,0000.69,0000.76,0000.72,17.1,24.2,,00.0,0638.7,30.9
2021-03-11T22:48:00Z,00000200,01000000,0001.31,0000.60,0000.28,0000.27,0000.09,0000.04,0000.32,-000.01,0000.14,17.2,24.2,,00.0,0638.7,31.0
2021-03-11T22:49:00Z,00000200,01000000,0000.99,0000.98,0000.26,0000.12,-000.02,0000.27,0000.34,0000.53,0000.34,17.3,24.2,,00.0,0638.7,31.0
2021-03-11T22:50:00Z,00000200,01000000,0001.47,0000.84,0000.44,0000.06,0000.02,0000.00,0000.17,0000.09,0000.38,17.3,24.3,,00.0,0638.7,31.0
2021-03-11T22:51:00Z,00000200,01000000,0001.08,0000.94,0000.32,0000.43,0000.25,0000.11,0000.65,0000.56,0000.04,17.4,24.3,,00.0,0638.8,31.0
2021-03-11T22:52:00Z,00000200,01000000,0001.05,0000.67,0000.14,-000.21,0000.17,0000.06,0000.38,0000.16,0000.29,17.5,24.4,,00.0,0638.8,31.0
2021-03-11T22:53:00Z,00000200,01000000,0000.89,0000.94,0000.30,0000.35,0000.09,0000.13,-000.26,0000.37,0000.05,17.5,24.4,,00.0,0638.8,31.0
2021-03-11T22:54:00Z,00000200,01000000,0001.41,0000.87,0000.53,0000.40,0000.21,0000.16,0000.28,-000.43,0000.09,17.5,24.4,,00.0,0638.8,31.0
2021-03-11T22:55:00Z,00000200,01000000,0001.13,0000.65,0000.51,0000.60,0000.26,0000.12,0000.13,0000.72,0000.30,17.5,24.4,,00.0,0638.8,31.0
2021-03-11T22:56:00Z,00000200,01000000,0001.21,0000.71,0000.27,0000.35,-000.07,0000.36,0000.71,0000.26,-000.05,17.4,24.4,,00.0,0638.8,31.0
2021-03-11T22:57:00Z,00000200,41000000,,,,,,,0000.49,0000.74,0000.50,17.5,24.4,,00.0,0638.8,31.0
2021-03-11T22:58:00Z,00000200,61000000,,,,,,,-000.23,-000.30,0000.02,17.1,24.5,,00.0,0637.9,30.9
2021-03-11T22:59:00Z,00000200,21000000,,,,,,,-000.16,-000.24,-000.22,17.1,24.6,,00.0,0637.8,31.0
